Погода в Тутаеве

Россия / Ярославская область     57°52′07″N   39°31′50″E
темп.,
°C
ветер,
м/с
пор.,
м/с
влажн.,
%
обл.,
%
осадки,
мм/ч
давл.,
гПа
погр.,
м
22 апреля, чт
чт2200:00+3ююз3993100 0.0 1010386
03:00+3ююз3893100 0.0 1011330
06:00+3ю4109199 0.0 1011321
09:00+6ю5987100 0.2 1012617
12:00+9ююз61074100 0.6 10121216
15:00+10ююз487292 1.8 10131150
18:00+10ююз48745 0.7 1013708
21:00+6ю39919 0.7 1015179
23 апреля, пт
пт2300:00+6ююв3119269 0.0 1015235
03:00+5ююв4129319 0.0 1014273
06:00+6ююв4139353 0.0 1014359
09:00+11ю6127839 0.0 1014620
12:00+14ю6115992 0.3 10131695
15:00+16ю71250100 1.0 10122471
18:00+13ююз61160100 1.0 10121049
21:00+7зсз009165 1.4 101454
24 апреля, сб
сб2400:00+7ююв119440 0.1 101124
03:00+6юв3119094 0.1 1009366
06:00+7юв61586100 0.0 1007563
09:00+11юв71471100 0.3 10051283
12:00+11ююв61278100 1.3 10031731
15:00+2з41096100 2.9 1006473
18:00+3зсз4996100 2.3 1006611
21:00+3зсз3893100 2.6 1006579
25 апреля, вс
вс2500:00+3з3893100 0.1 1005542
03:00+2з3992100 0.1 1005501
06:00+2з3986100 0.0 1005359
09:00+4з5869100 0.0 1006943
12:00+6зюз6763100 0.3 10061593
15:00+7зюз4748100 0.6 10072101
18:00+6зюз4760100 0.3 10071147
21:00+2юз310795 0.4 1008278
26 апреля, пн
пн2600:00+1юз410875 0.0 1009360
03:000юз410915 0.0 1009360
06:000юз39895 0.0 1010354
09:00+5юз476315 0.0 10091063
12:00+6юз6754100 0.6 10091817
15:00+6зюз575986 1.1 10091604
18:00+5з36615 0.0 10091099
21:00+2ю11765 0.0 100810